Archival Weather

Aeroparque Jorge Newbery

Buenos Aires, Argentina (SABE)

Report from: Thursday, September 21, 2023 5:32 AM -03
Current time: Saturday, March 2, 2024 7:45 AM -03

Current weather – Weather history – Daily summaries
Weather forecast

Present weatherFog
Temperature16.0°C (60.8°F)
Dew point16.0°C (60.8°F)
Winds Calm
Visibility328.1 ft. (100 m)
Clouds Ceiling: Vertical visibility 100 ft. (30 m)
Altimeter29.83 in.Hg (1010 mB)
Relative humidity100 %
Density altitude478 ft. (146 m)
Remarks No significant changes expected in the next two hours
Special weather observation
Flight conditions Low Instrument Meteorological Conditions
Raw dataSPECI SABE 210832Z 00000KT 0100 R13/0750D FG VV001 16/16 Q1010 NOSIG RMK PP000
An error has occurred. This application may no longer respond until reloaded. Reload 🗙